Regional Weather Roundup
Issued by NWS Goodland, KS

Home | Current Version | Previous Version | Graphics & Text | Print | Product List | Glossary On
Versions: 1 2 3 4 5 6 7 8 9 10 11 12 13 14 15 16 17 18 19 20 21 22 23 24 25 26 27 28 29 30 31 32 33 34 35 36 37 38 39 40 41 42 43 44 45 46 47 48 49 50
000
ASUS43 KGLD 041408
RWRGLD

GOODLAND FORECAST AREA HOURLY WEATHER ROUNDUP
NATIONAL WEATHER SERVICE GOODLAND KS
800 AM MDT FRI SEP 04 2015

...OFFICIAL OBSERVATIONS...

CITY           SKY/WX    TMP DP  RH WIND       PRES   REMARKS
GOODLAND KS    SUNNY     70  53  54 NW13      29.92R
HILL CITY KS   SUNNY     78  60  53 VRB7      29.86R
IMPERIAL NEB   SUNNY     66  56  70 NW12      29.88R
MCCOOK NEB     PTSUNNY   73  62  68 S7        29.83R
AKRON CO       MOSUNNY   63  52  67 W10       29.98R
BURLINGTON CO  SUNNY     68  53  58 W8        29.97R
LIMON CO       MOSUNNY   62  51  67 N6        30.04R
$$

...UNOFFICIAL OBSERVATIONS...

CITY           SKY/WX    TMP DP  RH WIND       PRES   REMARKS
COLBY KS       SUNNY     72  59  64 NW8       29.91R
GOVE KS          N/A     74  32  21 MISG        N/A
LENORA KS        N/A     75  32  20 MISG        N/A
NORTON KS      SUNNY     75  55  50 S13       29.84R
SHARON SPRINGS   N/A     67  56  67 W5G12       N/A
KIT CARSON CO    N/A     66  53  64 MISG        N/A
YUMA CO          N/A     64  55  74 W8          N/A
$$



USA.gov is the U.S. government's official web portal to all federal, state and local government web resources and services.